РПИ Тбилиси*

Грузинский район полетной информации (UGGG, УГГГ) обеспечивает организацию воздушного движения в воздушном пространстве Грузии и над юго-восточной частью акватории Черного моря в сети VATSIM.

В состав РПИ входят три международных аэропорта, один из которых также считается региональным аэропортом Турции (Тбилиси, Батуми и Кутаиси), два региональных (Местия и Амбролаури), а также два аэродрома авиации общего назначения (Телави и Натахтари).

РПИ Тбилиси является частью ЗЦ Ростов в составе сети VATSIM.

В воздушном пространстве Грузии и Армении по соглашению обеих стран в верхнем воздушном пространстве возможно применение Free-Route при планировании маршрута. На схеме ниже представлены точки на границе воздушного пространства Грузии. Точки на границе с воздушным пространством Армении (отмечены как (I)) обязательно должны быть указаны в плане полета, если полет проходит через оба воздушных пространства по технологии Free-Route.

Georgian flight information region provides air traffic control over Georgian airspace and south-east part of Black Sea in VATSIM Network.

FIR includes three international airports, one of which is Turkish regional airport (Tbilisi, Batumi and Kutaisi), two regional airports (Mestia and Ambrolauri) and two general aviation aerodromes (Telavi and Natakhtari).

Tbilisi FIR is part of ARCC Rostov in VATSIM Network.

In the Georgian and Armenian airspace, by agreement of both countries, the use of Free-Route technology is possible in the upper airspace when planning a route. The picture below shows the waypoints on the border of the Georgian airspace. Points on the border with the Armenian airspace (marked as (I)) must be in the flight plan if the flight passes through both airspaces using Free-Route technology.

Georgian Free-Route waypoints on the borders of the airspace

Лого Тбилиси*
Руководитель РПИ

George Kalandadze

Инструкторы РПИ
George Kalandadze * (Controller)
Grigori Badalov (Instructor)
Входит в состав
ЗЦ Ростов-на-Дону

Диспетчеры РПИ

Диспетчер Рейтинг Допуски *
George Kalandadze Controller UGGG_CTR
Grigori Badalov Instructor UGGG_CTR
Ivan Chernov Senior Controller UGGG_CTR
Karim Garifullin Instructor UGGG_CTR
Valeriy Polostyanoy Instructor UGGG_CTR
Nika Avdalov Student 2 UGKO_TWR, UGSB_TWR, UGTB_TWR
Suwan Kim Student 2 UGTB_TWR

Аэропорты РПИ

ICAO Город Название Погода
UGTB Тбилиси Тбилиси UGTB 010200Z 11005KT CAVOK 22/13 Q1013 NOSIG
UGSB Батуми Батуми UGSB 010200Z 13005KT 9999 OVC045 20/19 Q1011 NOSIG
UGKO Кутаиси Кутаиси UGKO 010200Z VRB02KT 9999 OVC014 19/18 Q1011 NOSIG
UGAM Амбролаури Амбролаури UGAM 010200Z AUTO VRB02KT //// ////// 16/16 Q1013
UGMS Местия Местия UGMS 010200Z AUTO 02002KT //// ////// 09/09 Q1019
UGSA Натахтари Натахтари
UGGT Телави Телави